This is the latest recevied weather packets stored in our database for station/object 4S6DRJ-13. If no packets are shown the sender has not sent any weather packets the latest 10 day(s).
| Time | Temp. | Humidity | Pressure | Rain* | Wind** | Luminosity | Snow |
|---|---|---|---|---|---|---|---|
| 1788251617 | 30.56° C | 71% | 1008.2 hPa | 0 mm | 3.13 m/s, 238° | 427 W/m² | - |
| 1788251556 | 30.56° C | 72% | 1008.1 hPa | 0 mm | 3.13 m/s, 231° | 1120 W/m² | - |
| 1788251495 | 31.11° C | 72% | 1008.1 hPa | 0 mm | 0.89 m/s, 192° | 1116 W/m² | - |
| 1788251434 | 31.11° C | 70% | 1008.1 hPa | 0 mm | 2.24 m/s, 204° | 272 W/m² | - |
| 1788251373 | 31.11° C | 69% | 1007.9 hPa | 0 mm | 3.13 m/s, 238° | 250 W/m² | - |
| 1788251312 | 31.11° C | 68% | 1008.2 hPa | 0 mm | 2.68 m/s, 160° | 337 W/m² | - |
| 1788251251 | 31.11° C | 69% | 1008.1 hPa | 0 mm | 2.68 m/s, 233° | 1123 W/m² | - |
| 1788251190 | 31.11° C | 70% | 1008 hPa | 0 mm | 1.79 m/s, 335° | 1118 W/m² | - |
| 1788251129 | 31.11° C | 71% | 1008 hPa | 0 mm | 1.79 m/s, 232° | 1119 W/m² | - |
| 1788251068 | 31.11° C | 70% | 1008.2 hPa | 0 mm | 4.02 m/s, 210° | 1119 W/m² | - |
| 1788251007 | 31.11° C | 70% | 1008.2 hPa | 0 mm | 1.34 m/s, 240° | 1127 W/m² | - |
| 1788250946 | 31.11° C | 70% | 1007.9 hPa | 0 mm | 1.34 m/s, 201° | 764 W/m² | - |
| 1788250885 | 31.11° C | 69% | 1008.2 hPa | 0 mm | 1.79 m/s, 252° | 452 W/m² | - |
| 1788250824 | 31.11° C | 69% | 1008.1 hPa | 0 mm | 2.68 m/s, 150° | 335 W/m² | - |
| 1788250764 | 31.11° C | 69% | 1008.1 hPa | 0 mm | 1.79 m/s, 357° | 360 W/m² | - |
| 1788250702 | 31.11° C | 70% | 1008.4 hPa | 0 mm | 0.89 m/s, 262° | 391 W/m² | - |
| 1788250641 | 31.11° C | 70% | 1008.2 hPa | 0 mm | 2.24 m/s, 209° | 393 W/m² | - |
| 1788250580 | 31.11° C | 71% | 1008.2 hPa | 0 mm | 2.68 m/s, 272° | 535 W/m² | - |
| 1788250520 | 31.11° C | 70% | 1008.1 hPa | 0 mm | 2.68 m/s, 304° | 1142 W/m² | - |
| 1788250458 | 31.11° C | 71% | 1008.3 hPa | 0 mm | 0.45 m/s, 217° | 428 W/m² | - |
| 1788250397 | 31.11° C | 70% | 1008.2 hPa | 0 mm | 1.79 m/s, 344° | 576 W/m² | - |
| 1788250337 | 31.11° C | 69% | 1008.1 hPa | 0 mm | 0.89 m/s, 130° | 1116 W/m² | - |
| 1788250275 | 31.67° C | 69% | 1008.3 hPa | 0 mm | 2.24 m/s, 264° | 518 W/m² | - |
| 1788250215 | 31.67° C | 68% | 1008.4 hPa | 0 mm | 2.24 m/s, 351° | 400 W/m² | - |
| 1788250153 | 31.11° C | 69% | 1008.3 hPa | 0 mm | 1.79 m/s, 300° | 426 W/m² | - |
* Rain latest hour (hover to see other rain measurements)
** Current wind speed in m/s (hover to see current wind gust speed)